星链-1673 (STARLINK-1673 )

导读

STARLINK-1673是美国太空探索技术公司(SpaceX)星链卫星互联网项目的卫星,于2020年9月3日发射入轨。星链旨在为全球提供低延迟、高速率的宽带互联网服务,该卫星是星链早期组网阶段发射的批量卫星之一,运行在近地轨道,为星链星座的全球覆盖能力构建提供支撑,该卫星目前已融入星链的运行网络中提供相关服务。

基本信息
目录编号:
46327
目录名称:
STARLINK-1673
国际标识:
2020-062C
轨道中心:
EARTH
卫星名称:
星链-1673
卫星全名:
星链-1673 (STARLINK-1673 )
卫星状态:
已陨落 最后检测时间 2025-07-13
发射日期:
2020-09-03 UTC
国别 :
美国 (US)
星等 :
--
该卫星已列入 空间交会检测服务 Space Conjunction Data Service (SCDS) ,当前飞行风险评估等级: 无高风险
轨道信息
数据来源 国际轨道数据
星历时间: 2025-07-13T11:45:10+0800
轨道信息已过期425天
半长轴: 6530.334km
偏心率: 0.0009148
轨道倾角: 53.003°
近地点辐角 309.101°
升交点赤经 283.716°
平近点角 134.904°
近地点: 146.225km
远地点: 158.173km
周期: 87.531分钟
每日圈数: 16.451282
详细信息
固有亮度:
5
最大亮度:
2.5
卫星平台:
Starlink V1.0
覆盖范围:
全球
运营商:
太空探索技术公司
运营商所在国:
美国
制造商(研发单位):
太空探索技术公司
制造商所在国:
美国
使用方式:
暂无
卫星简介
星链(Starlink)计划是由太空探索技术公司(SpaceX)提出的一个巨型低轨卫星互联网星座项目,计划在2019年至2024年间在太空搭建由约1.2万颗卫星组成的“星链”网络,其中1584颗将部署在地球上空550千米处的近地轨道,并从2020年开始工作。该卫星仍在工作。
与全量物体交会距离演化趋势
与全量物体交会风险概率演化趋势